Regional Weather Roundup
Issued by NWS

Home | Current Version | Previous Version | Graphics & Text | Print | Product List | Glossary On
Versions: 1 2 3 4 5 6 7 8 9 10 11 12 13 14 15 16 17 18 19 20 21 22 23 24 25 26 27 28 29 30 31 32 33 34 35 36 37 38 39 40 41 42 43 44 45 46 47 48 49 50
000
ASUS45 KBOI 290610
RWRID
WEATHER ROUNDUP FOR IDAHO
NATIONAL WEATHER SERVICE BOISE ID
1100 PM MST SUN DEC 28 2014

NOTE: "FAIR" INDICATES FEW OR NO CLOUDS BELOW 12000 FEET
WITH NO SIGNIFICANT WEATHER AND/OR OBSTRUCTIONS TO VISIBILITY

IDZ012-014-290700-
SOUTHWEST IDAHO


CITY           SKY/WX    TMP DP  RH WIND       PRES   REMARKS
BOISE          FOG       29  28  96 W5        30.11R VSB 1/4 WCI  24
CALDWELL       CLOUDY    27  21  80 S3        30.14S VSB 1/2
MOUNTAIN HOME  PTCLDY    21  19  93 N2        30.10R
$$

IDZ016-017-290700-
SOUTHCENTRAL IDAHO


CITY           SKY/WX    TMP DP  RH WIND       PRES   REMARKS
BURLEY         CLOUDY    22  17  81 N5        30.04R WCI  16
JEROME         CLOUDY    25  24  96 NW5       30.05R FOG     WCI  19
TWIN FALLS     CLOUDY    26  20  77 S10       30.05R WCI  16
$$

IDZ019>023-290700-
SOUTHEAST IDAHO


CITY           SKY/WX    TMP DP  RH WIND       PRES   REMARKS
IDAHO FALLS    MOCLDY    14  12  92 N6        30.04S WCI   5
POCATELLO      CLOUDY    26  24  92 SW6       30.04S WCI  19
REXBURG        CLOUDY    12  10  92 NE7       30.04R WCI   1
$$

IDZ006-010-011-018-031-032-290700-
CENTRAL IDAHO MOUNTAINS


CITY           SKY/WX    TMP DP  RH WIND       PRES   REMARKS
MCCALL         LGT SNOW  22  20  92 CALM      29.98S VSB 3/4
HAILEY         CLEAR     12   5  73 NW8       30.02S WCI   1
STANLEY          N/A      7   1  76 VRB3      29.98R
SALMON         CLOUDY    18  14  86 CALM      30.06S
CHALLIS        CLOUDY    13   9  84 S3        30.02R
$$

IDZ002-004-006-007-026-290700-
NORTHERN IDAHO


CITY           SKY/WX    TMP DP  RH WIND       PRES   REMARKS
LEWISTON       CLOUDY    31  29  92 CALM      30.15S
LOWELL           N/A     32  31  96 CALM      30.16R
COEUR D`ALENE  CLOUDY    27  23  86 N21       30.14R WCI  13
MULLAN PASS    NOT AVBL
$$



USA.gov is the U.S. government's official web portal to all federal, state and local government web resources and services.